Tracking 33744 objects as of 13-Apr-2026
HD Live streaming from Space Station
objects crossing your sky now

OBJECT A

Track OBJECT A now!


NORAD ID: 67756
Int'l Code: 2026-028A
Perigee: 35,790.7 km
Apogee: 35,796.8 km
Inclination: 0.4 °
Period: 1,436.1 minutes
Semi major axis: 42164 km
RCS: Unknown
Launch date: February 12, 2026
Source: Commonwealth of Independent States (former USSR) (CIS)
Launch site: TYURATAM MISSILE AND SPACE COMPLEX (TTMTR)
Your satellite tracking list
Your tracking list is empty




NASA's NSSDC Master Catalog

Two Line Element Set (TLE):
1 67756U 26028A   26102.23192594 -.00000096  00000-0  00000-0 0  9991
2 67756   0.3919 294.8745 0000714 195.6952 229.4358  1.00271782   598
Source of the keplerian elements: AFSPC